Weather History for West Yellowstone, MT

Change the Weather History Date:

Sunday, November 4, 2012

  Actual Average Record
Temperature  
Mean Temperature 40 °F -  
Max Temperature 48 °F 39 °F 57 °F (2010)
Min Temperature 32 °F 18 °F 1 °F (2013)
Degree Days  
Heating Degree Days 25    
Moisture  
Dew Point -    
Average Humidity    
Maximum Humidity    
Minimum Humidity    
Precipitation  
Precipitation 0.00 in - - ()
Sea Level Pressure  
Sea Level Pressure 30.36 in    
Wind  
Wind Speed 5 mph (SW)    
Max Wind Speed 16 mph    
Max Gust Speed 23 mph    
Visibility 10 miles    
Events      
Averages and records for this station are not official NWS values.
T = Trace of Precipitation, MM = Missing Value Source: NWS Daily Summary

Daily Weather History Graph

Daily Weather History Graph

Search for Another Location

Airport:

Trip Planner

Search our weather history database for the weather conditions in past years. The results will help you decide how hot, cold, wet, or windy it might be!

Date:

Astronomy

Nov. 04, 2012 Rise Set
Actual Time 7:07 AM MST 5:08 PM MST
Civil Twilight 6:36 AM MST 5:39 PM MST
Nautical Twilight 6:01 AM MST 6:13 PM MST
Astronomical Twilight 5:27 AM MST 6:47 PM MST
Moon 9:48 PM MST (11/4) 11:55 AM MST (11/4)
Length of Visible Light 11h 02m
Length of Day
10h 01m
Waning Gibbous, 71% of the Moon is Illuminated
Nov 4
Waning Gibbous
Nov 6
Last Quarter
Nov 13
New
Nov 20
First Quarter
Nov 28
Full

Hourly Weather History & Observations

Time (MST) Temp. Windchill Dew Point Humidity Pressure Visibility Wind Dir Wind Speed Gust Speed Precip Events Conditions
12:10 AM 37.4 °F - - N/A% 30.25 in 10.0 mi Calm Calm - N/A   Overcast
12:30 AM 35.6 °F 32.8 °F - N/A% 30.26 in 10.0 mi NW 3.5 mph - N/A   Mostly Cloudy
12:50 AM 37.4 °F - - N/A% 30.26 in 10.0 mi Calm Calm - N/A   Scattered Clouds
1:10 AM 37.4 °F 32.1 °F - N/A% 30.26 in 10.0 mi SW 6.9 mph - N/A   Clear
1:30 AM 35.6 °F - - N/A% 30.26 in 10.0 mi Calm Calm - N/A   Clear
1:50 AM 37.4 °F 32.1 °F - N/A% 30.26 in 10.0 mi SSW 6.9 mph - N/A   Clear
1:10 AM 37.4 °F 33.8 °F - N/A% 30.27 in 10.0 mi SW 4.6 mph - N/A   Clear
1:30 AM 37.4 °F 33.8 °F - N/A% 30.27 in 10.0 mi WSW 4.6 mph - N/A   Clear
1:50 AM 32.0 °F 28.7 °F - N/A% 30.28 in 10.0 mi WSW 3.5 mph - N/A   Clear
2:10 AM 37.4 °F 31.4 °F - N/A% 30.27 in 10.0 mi SW 8.1 mph - N/A   Clear
2:30 AM 37.4 °F 31.4 °F - N/A% 30.28 in 10.0 mi SW 8.1 mph - N/A   Clear
2:50 AM 35.6 °F - - N/A% 30.29 in 10.0 mi Calm Calm - N/A   Clear
3:10 AM 35.6 °F 31.7 °F - N/A% 30.29 in 10.0 mi SSW 4.6 mph - N/A   Partly Cloudy
3:30 AM 33.8 °F - - N/A% 30.28 in 10.0 mi Calm Calm - N/A   Partly Cloudy
3:50 AM 32.0 °F 27.5 °F - N/A% 30.29 in 10.0 mi SW 4.6 mph - N/A   Partly Cloudy
4:10 AM 32.0 °F 28.7 °F - N/A% 30.30 in 10.0 mi WSW 3.5 mph - N/A   Mostly Cloudy
4:30 AM 35.6 °F - - N/A% 30.30 in 10.0 mi Calm Calm - N/A   Overcast
4:50 AM 32.0 °F - - N/A% 30.32 in 10.0 mi Calm Calm - N/A   Overcast
5:10 AM 32.0 °F - - N/A% 30.32 in 10.0 mi Calm Calm - N/A   Overcast
5:30 AM 32.0 °F 28.7 °F - N/A% 30.32 in 10.0 mi WNW 3.5 mph - N/A   Overcast
5:50 AM 32.0 °F 28.7 °F - N/A% 30.31 in 10.0 mi West 3.5 mph - N/A   Overcast
6:10 AM 37.4 °F 31.4 °F - N/A% 30.30 in 10.0 mi SW 8.1 mph - N/A   Scattered Clouds
6:30 AM 33.8 °F 30.8 °F - N/A% 30.31 in 10.0 mi SW 3.5 mph - N/A   Partly Cloudy
6:50 AM 35.6 °F 27.5 °F - N/A% 30.31 in 10.0 mi SSW 11.5 mph - N/A   Clear
7:10 AM 37.4 °F 28.2 °F - N/A% 30.31 in 10.0 mi SSW 16.1 mph 23.0 mph N/A   Clear
7:30 AM 35.6 °F 27.1 °F - N/A% 30.32 in 10.0 mi SSW 12.7 mph - N/A   Clear
7:50 AM 35.6 °F 29.9 °F - N/A% 30.34 in 10.0 mi South 6.9 mph - N/A   Partly Cloudy
8:10 AM 37.4 °F 29.8 °F - N/A% 30.34 in 10.0 mi SW 11.5 mph 17.3 mph N/A   Mostly Cloudy
8:30 AM 39.2 °F 35.0 °F - N/A% 30.35 in 10.0 mi WSW 5.8 mph - N/A   Overcast
8:50 AM 39.2 °F 34.2 °F - N/A% 30.35 in 10.0 mi West 6.9 mph - N/A   Overcast
9:10 AM 39.2 °F 35.9 °F - N/A% 30.35 in 10.0 mi NNE 4.6 mph - N/A   Overcast
9:30 AM 39.2 °F 37.0 °F - N/A% 30.36 in 10.0 mi NE 3.5 mph - N/A   Overcast
9:50 AM 39.2 °F 37.0 °F - N/A% 30.36 in 10.0 mi North 3.5 mph - N/A   Overcast
10:10 AM 39.2 °F 35.9 °F - N/A% 30.37 in 10.0 mi NE 4.6 mph - N/A   Overcast
10:30 AM 41.0 °F - - N/A% 30.38 in 10.0 mi Calm Calm - N/A   Overcast
10:50 AM 41.0 °F 36.4 °F - N/A% 30.39 in 10.0 mi ENE 6.9 mph - N/A   Overcast
11:10 AM 41.0 °F 39.0 °F - N/A% 30.39 in 10.0 mi NE 3.5 mph - N/A   Overcast
11:30 AM 42.8 °F - - N/A% 30.39 in 10.0 mi Calm Calm - N/A   Overcast
11:50 AM 44.6 °F 42.2 °F - N/A% 30.39 in 10.0 mi WNW 4.6 mph - N/A   Overcast
12:10 PM 44.6 °F 42.2 °F - N/A% 30.38 in 10.0 mi WSW 4.6 mph - N/A   Overcast
12:30 PM 46.4 °F 43.5 °F - N/A% 30.38 in 10.0 mi SW 5.8 mph - N/A   Overcast
12:50 PM 46.4 °F 42.9 °F - N/A% 30.38 in 10.0 mi WSW 6.9 mph - N/A   Overcast
1:10 PM 46.4 °F 42.9 °F - N/A% 30.38 in 10.0 mi West 6.9 mph - N/A   Overcast
1:30 PM 46.4 °F 42.4 °F - N/A% 30.38 in 10.0 mi WSW 8.1 mph - N/A   Overcast
1:50 PM 46.4 °F 42.4 °F - N/A% 30.38 in 10.0 mi West 8.1 mph - N/A   Overcast
2:10 PM 46.4 °F 42.4 °F - N/A% 30.38 in 10.0 mi SW 8.1 mph - N/A   Overcast
2:30 PM 46.4 °F 41.9 °F - N/A% 30.38 in 10.0 mi SSW 9.2 mph - N/A   Overcast
2:50 PM 46.4 °F 41.9 °F - N/A% 30.39 in 10.0 mi SSW 9.2 mph - N/A   Overcast
3:10 PM 46.4 °F 42.9 °F - N/A% 30.39 in 10.0 mi SW 6.9 mph - N/A   Overcast
3:30 PM 46.4 °F 41.5 °F - N/A% 30.39 in 10.0 mi SSW 10.4 mph - N/A   Overcast
3:50 PM 46.4 °F 42.9 °F - N/A% 30.39 in 10.0 mi SW 6.9 mph - N/A   Overcast
4:10 PM 48.2 °F - - N/A% 30.39 in 10.0 mi SSW 16.1 mph 19.6 mph N/A   Overcast
4:30 PM 46.4 °F 40.7 °F - N/A% 30.40 in 10.0 mi SW 12.7 mph - N/A   Overcast
4:50 PM 46.4 °F 41.9 °F - N/A% 30.40 in 10.0 mi SW 9.2 mph - N/A   Overcast
5:10 PM 44.6 °F 40.2 °F - N/A% 30.40 in 10.0 mi SSW 8.1 mph - N/A   Overcast
5:30 PM 44.6 °F 40.2 °F - N/A% 30.41 in 10.0 mi SW 8.1 mph - N/A   Overcast
5:50 PM 44.6 °F 40.2 °F - N/A% 30.41 in 10.0 mi SW 8.1 mph - N/A   Overcast
6:10 PM 42.8 °F 37.5 °F - N/A% 30.41 in 10.0 mi SW 9.2 mph - N/A   Overcast
6:30 PM 44.6 °F 39.7 °F - N/A% 30.42 in 10.0 mi SW 9.2 mph - N/A   Overcast
6:50 PM 42.8 °F 36.6 °F - N/A% 30.42 in 10.0 mi SSW 11.5 mph - N/A   Mostly Cloudy
7:10 PM 41.0 °F 35.2 °F - N/A% 30.42 in 10.0 mi SSW 9.2 mph - N/A   Partly Cloudy
7:30 PM 41.0 °F 35.2 °F - N/A% 30.42 in 10.0 mi SW 9.2 mph - N/A   Scattered Clouds
7:50 PM 41.0 °F 34.7 °F - N/A% 30.43 in 10.0 mi SW 10.4 mph - N/A   Partly Cloudy
8:10 PM 41.0 °F 35.8 °F - N/A% 30.44 in 10.0 mi SW 8.1 mph - N/A   Clear
8:30 PM 39.2 °F - - N/A% 30.44 in 10.0 mi Calm Calm - N/A   Clear
8:50 PM 41.0 °F 37.1 °F - N/A% 30.44 in 10.0 mi South 5.8 mph - N/A   Mostly Cloudy
9:10 PM 39.2 °F 35.0 °F - N/A% 30.44 in 10.0 mi SSW 5.8 mph - N/A   Overcast
9:30 PM 39.2 °F 34.2 °F - N/A% 30.44 in 10.0 mi SW 6.9 mph - N/A   Scattered Clouds
9:50 PM 39.2 °F 33.0 °F - N/A% 30.43 in 10.0 mi SSW 9.2 mph - N/A   Clear
10:10 PM 37.4 °F 34.9 °F - N/A% 30.43 in 10.0 mi SW 3.5 mph - N/A   Clear
10:30 PM 35.6 °F 32.8 °F - N/A% 30.43 in 10.0 mi SW 3.5 mph - N/A   Clear
10:50 PM 32.0 °F 27.5 °F - N/A% 30.43 in 10.0 mi WSW 4.6 mph - N/A   Clear